Regional Weather Roundup
Issued by NWS

Home | Current Version | Previous Version | Graphics & Text | Print | Product List | Glossary On
Versions: 1 2 3 4 5 6 7 8 9 10 11 12 13 14 15 16 17 18 19 20 21 22 23 24 25 26 27
000
ASUS45 KSLC 250010
RWRUT

UTAH REGIONAL WEATHER ROUNDUP
NATIONAL WEATHER SERVICE SALT LAKE CITY UT
600 PM MDT MON JUL 24 2017

UTZ001>011-023>025-250100-

NORTHERN UTAH

CITY           SKY/WX    TMP DP  RH WIND       PRES   REMARKS
BRIGHAM CITY   MOSUNNY   94  33  11 CALM      29.92F
HILL AFB       SUNNY     92  39  15 NW6       29.96F
LOGAN          MOSUNNY   94  41  16 N6        29.93F HX  90
OGDEN          SUNNY     94  40  15 W5        29.92S HX  90
SALT LAKE CITY PTSUNNY   97  45  16 N9        29.89F HX  93
TOOELE VALLEY  MOSUNNY   91  50  24 N12       29.90S
WENDOVER       PTSUNNY   93  42  17 SE10      29.89F
HEBER CITY     PTSUNNY   93  37  14 W7        30.01S
WEST JORDAN    MOSUNNY   92  58  31 CALM      29.93F HX  91

$$

UTZ011>015-024>027-250100-

CENTRAL/NORTHEAST UTAH

CITY           SKY/WX    TMP DP  RH WIND       PRES   REMARKS
PROVO AIRPORT  SUNNY     95  44  17 CALM      29.93F HX  91
MOAB/CANYONLAN CLOUDY    93  49  22 CALM      29.92F HX  90
DELTA          MOSUNNY   93  37  14 SW9       29.93F
PRICE          CLOUDY    81  51  35 NE12G21   30.09R
ROOSEVELT      CLOUDY    88  46  23 S12       30.04F
VERNAL         CLOUDY    88  49  25 SW18      30.01S

$$

UTZ013>016-019>022-027-250100-

SOUTHERN UTAH

CITY           SKY/WX    TMP DP  RH WIND       PRES   REMARKS
BRYCE CANYON   TSTM      59  56  89 N14       30.29F FOG
CEDAR CITY     CLOUDY    74  54  49 S13G25    30.08R
MILFORD        PTSUNNY   83  52  34 SW24G32   30.00R
ST GEORGE      PTCLDY    88  60  38 S8        29.88F
HANKSVILLE     CLOUDY    84  54  34 W12       29.97F
BLANDING       SUNNY     83  51  32 SW8       30.16F

$$

REGIONAL REPORTS     COLORADO/ARIZONA

CITY           SKY/WX    TMP DP  RH WIND       PRES   REMARKS
CRAIG, CO      SUNNY     87  37  17 W12       30.08S
GRAND JUNCTION MOSUNNY   91  51  25 W6        29.95F
RIFLE, CO      CLOUDY    92  39  15 W6        30.00F
MONTROSE, CO   CLOUDY    85  51  31 S12       30.07R
CORTEZ, CO     CLOUDY    87  47  24 S5        30.09S
COLORADO CITY    N/A     88  55  33 SW8       30.07S
PAGE, AZ       PTSUNNY   89  57  33 SW5       29.97F
GRAND CANYON   CLOUDY    75  55  49 CALM      30.19F
KINGMAN, AZ    CLOUDY    85  62  46 CALM      29.97F
FLAGSTAFF, AZ  CLOUDY    69  56  62 E5        30.22F

$$

REGIONAL REPORTS    NEVADA/IDAHO/WYOMING

CITY           SKY/WX    TMP DP  RH WIND       PRES   REMARKS
LAS VEGAS, NV  CLOUDY    94  59  31 W7        29.83S HX  93
ELY, NY        CLOUDY    72  50  45 SW8G28    30.15R
ELKO, NV       CLOUDY    84  47  27 SW10      29.97S
POCATELLO, ID  PTSUNNY   93  33  12 SW12      29.96F
BURLEY, ID     CLOUDY    90  45  21 SE7       29.91F
FORT BRIDGER,  MOCLDY    83  37  19 S6        30.17F
EVANSTON, WY   MOSUNNY   84  36  18 W8        30.15F
ROCK SPRINGS,  CLOUDY    85  34  16 S9        30.13F
KEMMERER, WY     N/A     81  28  15 N8        30.18S

$$




USA.gov is the U.S. government's official web portal to all federal, state and local government web resources and services.